Weather History for Copenhagen, Denmark

Change the Weather History Date:

Thursday, December 6, 2012

  Actual Average Record
Temperature  
Mean Temperature 26 °F -  
Max Temperature 31 °F 38 °F 50 °F (2006)
Min Temperature 20 °F 32 °F 20 °F (2012)
Degree Days  
Heating Degree Days 40    
Moisture  
Dew Point 21 °F    
Average Humidity 82    
Maximum Humidity 93    
Minimum Humidity 60    
Precipitation  
Precipitation 0.00 in - - ()
Sea Level Pressure  
Sea Level Pressure 29.68 in    
Wind  
Wind Speed 7 mph ()    
Max Wind Speed 14 mph    
Max Gust Speed 25 mph    
Visibility 6.9 miles    
Events Snow    
Averages and records for this station are not official NWS values.
T = Trace of Precipitation, MM = Missing Value Source: Averaged Metar Reports

Daily Weather History Graph

Daily Weather History Graph

Search for Another Location

Airport:

Trip Planner

Search our weather history database for the weather conditions in past years. The results will help you decide how hot, cold, wet, or windy it might be!

Date:

Astronomy

Dec. 06, 2012 Rise Set
Actual Time 8:22 AM CET 3:38 PM CET
Civil Twilight 7:36 AM CET 4:24 PM CET
Nautical Twilight 6:48 AM CET 5:12 PM CET
Astronomical Twilight 6:03 AM CET 5:57 PM CET
Moon No Moon Rise 12:06 PM CET (12/6)
Length of Visible Light 8h 48m
Length of Day
7h 16m
Waning Gibbous, 52% of the Moon is Illuminated
Dec 6
Waning Gibbous
Dec 6
Last Quarter
Dec 13
New
Dec 20
First Quarter
Dec 28
Full

Hourly Weather History & Observations

Time (CET) Temp. Windchill Dew Point Humidity Pressure Visibility Wind Dir Wind Speed Gust Speed Precip Events Conditions
12:20 AM 23.0 °F 14.7 °F 17.6 °F 80% 29.53 in 6.2 mi West 6.9 mph - N/A   Scattered Clouds
12:50 AM 21.2 °F 12.6 °F 17.6 °F 86% 29.53 in 6.2 mi West 6.9 mph - N/A   Partly Cloudy
1:00 AM 21 °F - 17 °F 76% 29.55 in 16 mi West 6.9 mph - -   Partly Cloudy
1:20 AM 23.0 °F 14.7 °F 17.6 °F 80% 29.53 in 6.2 mi WNW 6.9 mph - N/A   Mostly Cloudy
1:50 AM 23.0 °F 14.7 °F 19.4 °F 86% 29.53 in 6.2 mi West 6.9 mph - N/A   Mostly Cloudy
2:20 AM 23.0 °F 14.7 °F 19.4 °F 86% 29.53 in 6.2 mi West 6.9 mph - N/A   Mostly Cloudy
2:50 AM 23.0 °F 14.7 °F 17.6 °F 80% 29.53 in 6.2 mi West 6.9 mph - N/A   Partly Cloudy
3:20 AM 21.2 °F 12.6 °F 17.6 °F 86% 29.56 in 6.2 mi West 6.9 mph - N/A   Partly Cloudy
3:50 AM 21.2 °F 13.6 °F 17.6 °F 86% 29.56 in 6.2 mi West 5.8 mph - N/A   Scattered Clouds
4:00 AM 22 °F - 19 °F 84% 29.57 in 16 mi West 5.8 mph - -   Partly Cloudy
4:20 AM 21.2 °F 12.6 °F 19.4 °F 93% 29.56 in 6.2 mi West 6.9 mph - N/A   Mostly Cloudy
4:50 AM 23.0 °F 13.9 °F 21.2 °F 93% 29.56 in 5.0 mi West 8.1 mph - N/A Snow Light Snow
5:20 AM 23.0 °F 14.7 °F 21.2 °F 93% 29.56 in 5.0 mi West 6.9 mph - N/A Snow Light Snow
5:50 AM 23.0 °F 14.7 °F 21.2 °F 93% 29.56 in 5.0 mi West 6.9 mph - N/A Snow Light Snow
6:20 AM 23.0 °F 14.7 °F 21.2 °F 93% 29.56 in 6.2 mi West 6.9 mph - N/A Snow Light Snow
6:50 AM 23.0 °F 13.9 °F 21.2 °F 93% 29.59 in 6.2 mi WNW 8.1 mph - N/A Snow Light Snow
7:00 AM 23 °F - 21 °F 89% 29.60 in 12 mi WNW 8.1 mph - - Snow Light Snow
7:20 AM 24.8 °F 16.1 °F 23.0 °F 93% 29.59 in 6.2 mi WNW 8.1 mph - N/A Snow Light Snow
7:50 AM 24.8 °F 16.9 °F 21.2 °F 86% 29.59 in 6.2 mi WNW 6.9 mph - N/A Snow Light Snow
8:20 AM 24.8 °F 16.9 °F 23.0 °F 93% 29.62 in 6.2 mi WNW 6.9 mph - N/A   Mostly Cloudy
8:50 AM 26.6 °F 18.2 °F 24.8 °F 93% 29.62 in 6.2 mi WNW 8.1 mph - N/A Snow Light Snow
9:20 AM 26.6 °F 18.2 °F 24.8 °F 93% 29.65 in 6.2 mi NW 8.1 mph - N/A Snow Light Snow
9:50 AM 26.6 °F 19.1 °F 24.8 °F 93% 29.65 in 3.7 mi WNW 6.9 mph - N/A Snow Light Snow
10:00 AM 27 °F - 25 °F 90% 29.67 in 4 mi West 6.9 mph - - Snow Light Snow
10:20 AM 28.4 °F 19.1 °F 24.8 °F 86% 29.65 in 6.2 mi NW 10.4 mph - N/A Snow Light Snow
10:50 AM 28.4 °F 18.5 °F 24.8 °F 86% 29.68 in 6.2 mi NW 11.5 mph - N/A Snow Light Snow
11:20 AM 28.4 °F 19.1 °F 24.8 °F 86% 29.68 in 3.7 mi NW 10.4 mph - N/A Snow Light Snow
11:50 AM 28.4 °F 17.5 °F 24.8 °F 86% 29.68 in 6.2 mi NW 13.8 mph - N/A Snow Light Snow
12:20 PM 28.4 °F 18.5 °F 23.0 °F 80% 29.68 in 5.6 mi NW 11.5 mph - N/A Snow Light Snow
12:50 PM 28.4 °F 18.5 °F 23.0 °F 80% 29.71 in 5.6 mi WNW 11.5 mph - N/A Snow Light Snow
1:00 PM 29 °F - 24 °F 72% 29.72 in 6 mi NNW 10.4 mph - - Snow Light Snow
1:20 PM 30.2 °F 20.8 °F 23.0 °F 75% 29.71 in 6.2 mi NW 11.5 mph - N/A Snow Light Snow
1:50 PM 30.2 °F 20.8 °F 23.0 °F 75% 29.71 in 6.2 mi NW 11.5 mph - N/A Snow Light Snow
2:20 PM 30.2 °F 20.2 °F 21.2 °F 69% 29.71 in 6.2 mi NW 12.7 mph 25.3 mph N/A   Scattered Clouds
2:50 PM 30.2 °F 20.8 °F 19.4 °F 64% 29.74 in 6.2 mi NW 11.5 mph - N/A   Scattered Clouds
3:20 PM 30.2 °F 20.8 °F 17.6 °F 60% 29.74 in 6.2 mi NW 11.5 mph - N/A   Partly Cloudy
3:50 PM 28.4 °F 20.4 °F 19.4 °F 69% 29.74 in 6.2 mi WNW 8.1 mph - N/A   Scattered Clouds
4:00 PM 28 °F - 20 °F 61% 29.77 in 16 mi West 9.2 mph - -   Partly Cloudy
4:20 PM 28.4 °F 18.5 °F 23.0 °F 80% 29.77 in 3.1 mi West 11.5 mph - N/A Snow Light Snow
4:50 PM 28.4 °F 17.5 °F 24.8 °F 86% 29.77 in 1.9 mi WNW 13.8 mph - N/A Snow Light Snow
5:20 PM 26.6 °F 18.2 °F 24.8 °F 93% 29.77 in 6.2 mi West 8.1 mph - N/A   Scattered Clouds
5:50 PM 24.8 °F 15.3 °F 19.4 °F 80% 29.80 in 6.2 mi West 9.2 mph - N/A   Partly Cloudy
6:20 PM 24.8 °F 16.9 °F 19.4 °F 80% 29.80 in 6.2 mi West 6.9 mph - N/A   Partly Cloudy
6:50 PM 24.8 °F 15.3 °F 19.4 °F 80% 29.80 in 6.2 mi West 9.2 mph - N/A   Partly Cloudy
7:00 PM 24 °F - 19 °F 74% 29.81 in 16 mi West 8.1 mph - -   Partly Cloudy
7:20 PM 24.8 °F 15.3 °F 19.4 °F 80% 29.80 in 6.2 mi West 9.2 mph - N/A   Scattered Clouds
7:50 PM 24.8 °F 16.1 °F 19.4 °F 80% 29.80 in 6.2 mi West 8.1 mph - N/A   Scattered Clouds
8:20 PM 26.6 °F 17.5 °F 19.4 °F 74% 29.80 in 6.2 mi West 9.2 mph - N/A   Mostly Cloudy
8:50 PM 26.6 °F 17.5 °F 19.4 °F 74% 29.80 in 6.2 mi West 9.2 mph - N/A   Mostly Cloudy
9:20 PM 28.4 °F 21.2 °F 23.0 °F 80% 29.80 in 6.2 mi WSW 6.9 mph - N/A   Mostly Cloudy
9:50 PM 28.4 °F 19.7 °F 23.0 °F 80% 29.80 in 6.2 mi West 9.2 mph - N/A   Mostly Cloudy
10:00 PM 29 °F - 22 °F 65% 29.82 in 19 mi West 8.1 mph - -   Overcast
10:20 PM 28.4 °F 20.4 °F 21.2 °F 74% 29.80 in 6.2 mi WSW 8.1 mph - N/A   Mostly Cloudy
10:50 PM 28.4 °F 22.2 °F 23.0 °F 80% 29.80 in 6.2 mi WSW 5.8 mph - N/A   Mostly Cloudy
11:20 PM 28.4 °F 21.2 °F 24.8 °F 86% 29.80 in 6.2 mi WSW 6.9 mph - N/A   Mostly Cloudy
11:50 PM 28.4 °F 23.3 °F 24.8 °F 86% 29.80 in 6.2 mi WSW 4.6 mph - N/A   Mostly Cloudy